This is the latest recevied weather packets stored in our database for station/object IW3HBX-13. If no packets are shown the sender has not sent any weather packets the latest 10 day(s).
| Time | Temp. | Humidity | Pressure | Rain* | Wind** | Luminosity | Snow |
|---|---|---|---|---|---|---|---|
| 1777313167 | 19.44° C | 58% | 1016.2 hPa | 0 mm | - | 5 W/m² | - |
| 1777312450 | 20° C | 58% | 1016.2 hPa | 0 mm | - | 11 W/m² | - |
| 1777312090 | 20.56° C | 58% | 1016.1 hPa | 0 mm | - | 16 W/m² | - |
| 1777311729 | 20.56° C | 58% | 1016.1 hPa | 0 mm | - | 23 W/m² | - |
| 1777311367 | 20.56° C | 57% | 1016.1 hPa | 0 mm | - | 27 W/m² | - |
| 1777311007 | 21.11° C | 58% | 1016.1 hPa | 0 mm | - | 31 W/m² | - |
| 1777310649 | 21.11° C | 57% | 1016.1 hPa | 0 mm | - | 39 W/m² | - |
| 1777310287 | 21.11° C | 56% | 1016.1 hPa | 0 mm | - | 46 W/m² | - |
| 1777309930 | 21.67° C | 55% | 1015.9 hPa | 0 mm | - | 53 W/m² | - |
| 1777309568 | 21.67° C | 55% | 1016 hPa | 0 mm | - | 61 W/m² | - |
| 1777308850 | 22.22° C | 56% | 1015.9 hPa | 0 mm | - | 81 W/m² | - |
| 1777308487 | 22.78° C | 54% | 1016 hPa | 0 mm | - | 92 W/m² | - |
| 1777308128 | 22.78° C | 54% | 1016.1 hPa | 0 mm | - | 105 W/m² | - |
| 1777307768 | 22.78° C | 53% | 1016.1 hPa | 0 mm | - | 120 W/m² | - |
| 1777307407 | 22.78° C | 53% | 1016.2 hPa | 0 mm | - | 133 W/m² | - |
| 1777307050 | 23.33° C | 52% | 1016.1 hPa | 0 mm | - | 152 W/m² | - |
| 1777306689 | 23.33° C | 52% | 1016.1 hPa | 0 mm | - | 171 W/m² | - |
| 1777306327 | 23.33° C | 51% | 1016.2 hPa | 0 mm | - | 194 W/m² | - |
| 1777305969 | 24.44° C | 50% | 1016.2 hPa | 0 mm | - | 220 W/m² | - |
| 1777305247 | 23.33° C | 51% | 1016.2 hPa | 0 mm | - | 256 W/m² | - |
| 1777304887 | 23.89° C | 52% | 1016.1 hPa | 0 mm | - | 265 W/m² | - |
| 1777304527 | 23.89° C | 51% | 1016.2 hPa | 0 mm | - | 279 W/m² | - |
| 1777304170 | 23.89° C | 51% | 1016.1 hPa | 0 mm | - | 292 W/m² | - |
| 1777303810 | 23.89° C | 51% | 1016.1 hPa | 0 mm | - | 286 W/m² | - |
| 1777303447 | 24.44° C | 50% | 1016.2 hPa | 0 mm | - | 300 W/m² | - |
* Rain latest hour (hover to see other rain measurements)
** Current wind speed in m/s (hover to see current wind gust speed)